THOR ABLESTAR DEB, 48824

Orbit data source: Space-Track

THOR ABLESTAR DEB, 48824 is space debris in LEO originally from a launch on Thu, 29 Jun 1961 UTC launched from the Air Force Eastern Test Range (AFETR). Debris objects in space refer to the collection of defunct objects orbiting the Earth. Examples of debris include non-operational satellites, rocket bodies, and fragments generated from explosions, collisions, or faulty payload assembly.

Loading next visibility...
Identifier
48824, 1961-015NC
Orbit
LEO
Country
Flag of USUS
Related business
Manufacturer
Unknown
Mission
Spacecraft
Bus & Motor
Unknown
Mass
Unknown
Launch date (UTC)
1961-06-29 (65 years ago)
Launch vehicle
Unknown
Launch site
Air Force Eastern Test Range (AFETR)
Object type
Payload
Rocket body
Debris
Shape & HBR
Unknown shape, 0.1 m
Radar Cross Section
Medium (>0.1 m² and <1 m²)

Expand to show TLE details & history
Last TLE update: 5 days ago

TLE from 5 days ago
0 THOR ABLESTAR DEB
1 48824U 61015NC  26154.90230149  .00000080  00000-0  97913-4 0  9996
2 48824  67.0045 332.3608 0098883 291.3013  67.7539 14.02775241641359
Epoch: 2026-06-03T21:39Z
TLE epoch observation values (Epoch: 2026-06-03T21:39:18.848Z)
Latitude
-0.00001°
Longitude
115.17801°
Altitude
859.726 km
Speed
7.437 km/s
True Right ascension
22h 09m 26s
True Declination
0° 00' 00"
Sunlit
Object was in daylight at epoch
Visualization orbit readout
Latitude
Unknown
Longitude
Unknown
Altitude
Unknown
Speed
Unknown
Apparent Right ascension
Unknown
Apparent Declination
Unknown
Sunlit
N/A
Visualization observer readout
Local Sidereal Time
19:14:15
Azimuth
Unknown
Elevation
Unknown
Doppler factor
Unknown
Orbital elements
Apogee altitude
954.357 km
Perigee altitude
810.765 km
Semi-major axis
7,260.698 km
Eccentricity
0.00989
Inclination
67.0045°
RAAN
332.3608°
Arg. of periapsis
291.3013°
True anomaly
68.80754°
Mean anomaly
67.7539°
Eccentric anomaly
68.28024°
Mean motion
3.50813 °/min
Orbital period
102.62 mins
BSTAR
0.000097913
Loading maneuver chart data...
Computing Atmospheric mass density...

Documentation

Showing up to 5 results
|